Skip Page Navigation
NASA JPL Caltech
NASA Logo - Jet Propulsion Laboratory + View the NASA Portal
+ Center for Near-Earth Object Studies
JPL Home Earth Solar System Stars & Galaxies Technology
JPL Solar System Dynamics
BODIES ORBITS EPHEMERIDES TOOLS PHYSICAL DATA DISCOVERY FAQ SITE MAP
IMPORTANT: The SSD Announcement email list is now available. Major changes are coming in the near future, including possible hostname and/or URL changes. To be notified of such changes, subscribe to this email list.

Please visit this page for more details.


JPL Small-Body Database Browser
Search: [ help ]  
34434 (2000 SE39)
Classification: Main-belt Asteroid          SPK-ID: 2034434
Ephemeris | Orbit Diagram | Orbital Elements | Mission Design | Physical Parameters | Discovery Circumstances | Close-Approach Data ]

[ show orbit diagram ]
Orbital Elements at Epoch 2458600.5 (2019-Apr-27.0) TDB
Reference: JPL 25 (heliocentric ecliptic J2000)
 Element Value Uncertainty (1-sigma)   Units 
e .06296878997108417 3.9266e-08  
a 2.73597038047332 1.4203e-08 au
q 2.563689636218188 1.0991e-07 au
i 6.378716516704744 3.8008e-06 deg
node 112.9340602070872 4.2063e-05 deg
peri 297.2704453402039 5.5128e-05 deg
M 2.282984208744735 3.477e-05 deg
tp 2458590.017474664392
(2019-Apr-16.51747466)
0.00015965 TDB
period 1652.97206453038
4.53
1.2871e-05
3.524e-08
d
yr
n .2177895245327563 1.6959e-09 deg/d
Q 2.908251124728451 1.5097e-08 au
  Orbit Determination Parameters
   # obs. used (total)      1595  
   data-arc span      13224 days (36.21 yr)  
   first obs. used      1982-11-14  
   last obs. used      2019-01-28  
   planetary ephem.      DE431  
   SB-pert. ephem.      SB431-N16  
   condition code      0  
   norm. resid. RMS      .52614  
   source      ORB  
   producer      Otto Matic  
   solution date      2019-Jul-13 01:42:02  

Additional Information
 Earth MOID = 1.58179 au 
 Jupiter MOID = 2.32443 au 
 T_jup = 3.340 
[ show covariance matrix ]

Ephemeris | Orbit Diagram | Orbital Elements | Mission Design | Physical Parameters | Discovery Circumstances | Close-Approach Data ]

Physical Parameter Table
Parameter Symbol Value Units Sigma Reference Notes
absolute magnitude H 13.8   n/a MPO365659  
diameter diameter 8.723 km 1.760 urn:nasa:pds:neowise_diameters_albedos::2.0[mainbelt] (http://adsabs.harvard.edu/abs/2016AJ....152...63N)  
geometric albedo albedo 0.077   0.047 urn:nasa:pds:neowise_diameters_albedos::2.0[mainbelt] (http://adsabs.harvard.edu/abs/2016AJ....152...63N)  

34434 (2000 SE39)          Discovered 2000-Sep-24 by LINEAR at Socorro
Reference: 20020128/Numbers.arcLast Updated: 2004-04-19

[ show close-approach data ]
Alternate Designations
 2000 SE39 = 1982 VH2 = 1986 PC3 = 1991 RH38 
Ephemeris | Orbit Diagram | Orbital Elements | Mission Design | Physical Parameters | Discovery Circumstances | Close-Approach Data ]
ABOUT SSD CREDITS/AWARDS PRIVACY/COPYRIGHT GLOSSARY LINKS
FirstGov 2019-Oct-17 04:16 UT
(server date/time)  
NASA Home Page
Site Manager:   Ryan S. Park
Webmaster  Alan B. Chamberlin